Weather History for Sault Ste Marie, MI

Change the Weather History Date:

Wednesday, January 23, 2013

  Actual Average Record
Temperature  
Mean Temperature -2 °F 15 °F  
Max Temperature 7 °F 23 °F 42 °F (1999)
Min Temperature -12 °F 7 °F -25 °F (1935)
Degree Days  
Heating Degree Days 67 50  
Month to date heating degree days 1025 1138  
Since 1 July heating degree days 3992 4397  
Moisture  
Dew Point -10 °F    
Average Humidity 73    
Maximum Humidity 80    
Minimum Humidity 65    
Precipitation  
Precipitation 0.01 in 0.07 in 0.62 in (1999)
Month to date precipitation 2.22 1.69  
Year to date precipitation 2.22 1.69  
Snow  
Snow 0.20 in 1.00 in 6.60 in (1982)
Month to date snowfall 26.4 23.8  
Since 1 July snowfall 78.4 74.0  
Snow Depth 15.00 in    
Sea Level Pressure  
Sea Level Pressure 30.13 in    
Wind  
Wind Speed 6 mph (East)    
Max Wind Speed 15 mph    
Max Gust Speed 22 mph    
Visibility 7 miles    
Events Snow    
T = Trace of Precipitation, MM = Missing Value Source: NWS Daily Summary

Daily Weather History Graph

Daily Weather History Graph

Search for Another Location

Airport:

Trip Planner

Search our weather history database for the weather conditions in past years. The results will help you decide how hot, cold, wet, or windy it might be!

Date:

Astronomy

Jan. 23, 2013 Rise Set
Actual Time 8:10 AM EST 5:28 PM EST
Civil Twilight 7:37 AM EST 6:01 PM EST
Nautical Twilight 7:00 AM EST 6:38 PM EST
Astronomical Twilight 6:24 AM EST 7:14 PM EST
Moon 2:35 PM EST (1/23) 5:24 AM EST (1/23)
Length of Visible Light 10h 24m
Length of Day
9h 18m
Waxing Gibbous, 89% of the Moon is Illuminated
Jan 23
Waxing Gibbous
Jan 26
Full
Feb 3
Last Quarter
Feb 10
New
Feb 17
First Quarter

Hourly Weather History & Observations

Time (EST) Temp. Windchill Dew Point Humidity Pressure Visibility Wind Dir Wind Speed Gust Speed Precip Events Conditions
12:06 AM -9.9 °F -21.5 °F -17.0 °F 71% 30.13 in 2.5 mi ENE 4.6 mph - 0.00 in Snow Light Snow
12:16 AM -11.0 °F -22.8 °F -17.0 °F 75% 30.13 in 4.0 mi East 4.6 mph - 0.00 in   Haze
12:55 AM -11.0 °F -22.8 °F -17.0 °F 75% 30.19 in 7.0 mi East 4.6 mph - 0.00 in   Scattered Clouds
1:55 AM -11.9 °F -25.7 °F -18.0 °F 74% 30.18 in 6.0 mi ENE 5.8 mph - N/A   Haze
2:19 AM -11.9 °F -23.8 °F -18.0 °F 74% 30.12 in 7.0 mi East 4.6 mph - N/A   Scattered Clouds
2:55 AM -11.9 °F -25.7 °F -18.0 °F 74% 30.19 in 6.0 mi East 5.8 mph - 0.00 in Snow Light Snow
3:11 AM -11.0 °F -24.6 °F -17.0 °F 75% 30.12 in 2.5 mi East 5.8 mph - 0.00 in Snow Light Snow
3:28 AM -11.0 °F -22.8 °F -17.0 °F 75% 30.11 in 3.0 mi ENE 4.6 mph - 0.00 in Snow Light Snow
3:35 AM -11.0 °F -26.2 °F -17.0 °F 75% 30.11 in 1.8 mi ENE 6.9 mph - 0.00 in Snow Light Snow
3:55 AM -11.0 °F -24.6 °F -17.0 °F 75% 30.17 in 1.8 mi East 5.8 mph - 0.01 in Snow Light Snow
4:02 AM -11.0 °F -22.8 °F -17.0 °F 75% 30.10 in 3.0 mi East 4.6 mph - 0.00 in Snow Light Snow
4:14 AM -11.0 °F -22.8 °F -17.0 °F 75% 30.10 in 10.0 mi East 4.6 mph - 0.00 in   Overcast
4:55 AM -9.9 °F -19.2 °F -16.1 °F 74% 30.16 in 10.0 mi East 3.5 mph - 0.00 in   Overcast
5:12 AM -9.9 °F -21.5 °F -16.1 °F 74% 30.08 in 2.5 mi East 4.6 mph - 0.00 in Snow Light Snow
5:34 AM -9.0 °F -20.4 °F -15.0 °F 75% 30.08 in 4.0 mi East 4.6 mph - 0.00 in Snow Light Snow
5:47 AM -9.0 °F -22.3 °F -15.0 °F 75% 30.08 in 9.0 mi East 5.8 mph - 0.00 in   Overcast
5:55 AM -9.0 °F -22.3 °F -15.0 °F 75% 30.14 in 10.0 mi East 5.8 mph - 0.00 in   Overcast
6:55 AM -9.0 °F -20.4 °F -14.1 °F 79% 30.14 in 10.0 mi East 4.6 mph - N/A   Overcast
7:55 AM -8.0 °F -21.0 °F -14.1 °F 75% 30.12 in 10.0 mi East 5.8 mph - N/A   Overcast
8:55 AM -8.0 °F -21.0 °F -13.0 °F 79% 30.11 in 10.0 mi East 5.8 mph - N/A   Overcast
9:55 AM -6.0 °F -16.9 °F -11.9 °F 75% 30.11 in 10.0 mi East 4.6 mph - N/A   Overcast
10:55 AM -4.0 °F -16.3 °F -11.0 °F 72% 30.11 in 10.0 mi East 5.8 mph - N/A   Overcast
11:55 AM -0.9 °F -11.0 °F -9.9 °F 66% 30.09 in 10.0 mi East 4.6 mph - N/A   Overcast
12:55 PM 1.0 °F -8.7 °F -8.0 °F 66% 30.07 in 10.0 mi East 4.6 mph - N/A   Overcast
1:55 PM 3.0 °F -9.3 °F -6.0 °F 66% 30.04 in 10.0 mi East 6.9 mph - N/A   Overcast
2:55 PM 5.0 °F -6.9 °F -4.0 °F 66% 30.04 in 10.0 mi East 6.9 mph - N/A   Overcast
3:55 PM 6.1 °F -4.3 °F -2.9 °F 67% 30.06 in 10.0 mi East 5.8 mph - N/A   Overcast
4:55 PM 6.1 °F -4.3 °F -2.0 °F 69% 30.07 in 10.0 mi East 5.8 mph - N/A   Overcast
5:55 PM 5.0 °F -4.1 °F -0.9 °F 76% 30.10 in 4.0 mi East 4.6 mph - 0.00 in Snow Light Snow
6:41 PM 5.0 °F -4.1 °F -0.0 °F 80% 30.06 in 2.5 mi East 4.6 mph - 0.00 in Snow Light Snow
6:55 PM 5.0 °F -4.1 °F -0.0 °F 80% 30.13 in 3.0 mi East 4.6 mph - 0.00 in Snow Light Snow
7:55 PM 5.0 °F -2.1 °F 1.0 °F 84% 30.16 in 7.0 mi ENE 3.5 mph - 0.00 in   Overcast
8:12 PM 6.1 °F - 1.0 °F 80% 30.11 in 2.0 mi Calm Calm - 0.00 in Snow Light Snow
8:28 PM 6.1 °F -0.9 °F 1.0 °F 80% 30.11 in 2.5 mi ENE 3.5 mph - 0.00 in Snow Light Snow
8:33 PM 6.1 °F -0.9 °F 1.0 °F 80% 30.12 in 3.0 mi ENE 3.5 mph - 0.00 in Snow Light Snow
8:55 PM 6.1 °F -0.9 °F 1.9 °F 83% 30.19 in 6.0 mi NE 3.5 mph - 0.00 in   Overcast
9:55 PM 5.0 °F -4.1 °F -2.0 °F 73% 30.22 in 10.0 mi NE 4.6 mph - N/A   Mostly Cloudy
10:55 PM 3.9 °F -8.2 °F -5.1 °F 66% 30.27 in 10.0 mi NNE 6.9 mph - N/A   Clear
11:55 PM 1.0 °F -16.6 °F -9.0 °F 63% 30.31 in 10.0 mi NNE 12.7 mph 21.9 mph N/A   Clear